Regional Weather Roundup
Issued by NWS Wakefield, VA

Home | Current Version | Previous Version | Text Only | Print | Product List | Glossary Off
Versions: 1 2 3 4 5 6 7 8 9 10 11 12 13 14 15 16 17 18 19 20 21 22 23 24 25 26 27 28 29 30 31 32 33 34 35 36 37 38 39 40 41 42 43 44 45 46 47 48 49

000
ASUS41 KAKQ 311715
RWRAKQ

REGIONAL WEATHER ROUNDUP
NATIONAL WEATHER SERVICE WAKEFIELD VA
100 PM EDT FRI JUL 31 2015

Note: "fair" indicates few or no clouds below 12,000 feet with no
significant weather and/or obstructions to visibility. * = Denotes
station may not report precipitation (e.g., rain,snow,etc.),
thunder or fog.

VAZ042-051-052>054-056-311800-
NORTHERN VIRGINIA

CITY           SKY/WX    TMP DP  RH WIND       PRES   REMARKS
WASH NATIONAL  MOSUNNY   90  59  35 NW9       29.93F
DULLES         MOSUNNY   85  58  39 NW10G17   29.94F
FORT BELVOIR   MOSUNNY   87  60  40 VRB5      29.93F
QUANTICO       MOSUNNY   90  54  28 NW6       29.90F
FREDERICKSBRG* SUNNY     87  57  36 N6        29.94F
STAFFORD*      SUNNY     85  57  38 W8        29.99F
WARRENTON      SUNNY     87  64  44 W5        29.95F
CULPEPER*      SUNNY     83  59  43 N6        29.96F
MANASSAS*      SUNNY     73  57  56 NW6       29.95
LEESBURG*      MOSUNNY   88  59  37 NW9G20    29.96F
WINCHESTER     PTSUNNY   86  55  35 NW8       29.97F
FRONT ROYAL*   FAIR      81  59  47 N5        29.97F
LURAY*         FAIR      88  55  33 NW6       29.98F
$$

VAZ048-049-060>072-079>083-311800-
CENTRAL AND SOUTH CENTRAL VIRGINIA

CITY           SKY/WX    TMP DP  RH WIND       PRES   REMARKS
RICHMOND       MOSUNNY   88  61  40 VRB3      29.96S
CHESTERFIELD*  FAIR      88  55  33 N9        29.97S
PETERSBURG*    SUNNY     88  65  46 CALM      29.97S
HANOVER        SUNNY     86  61  42 NW8       29.98S
TAPPAHANNOCK*  SUNNY     85  57  38 CALM      29.96S
QUINTON*       FAIR      85  63  47 NE6       29.95S
CHARLOTTSVILLE SUNNY     84  58  40 N5        29.98F
GORDONSVILLE*  FAIR      82  59  44 CALM      29.97F
ORANGE*        SUNNY     84  59  42 CALM      29.98F
LOUISA*        MOSUNNY   86  57  37 N6        29.96F
BUMPASS*       FAIR      84  59  42 N6        29.97S
FARMVILLE*     SUNNY     86  56  35 NE9       29.98S
CREWE*         FAIR     N/A N/A N/A CALM      29.98S
FORT PICKETT*  FAIR      86  60  41 N6        29.98S
CHASE CITY*    FAIR      86  63  46 N6        29.99S
CLARKSVILLE*   FAIR      84  63  48 N6        29.99S
SOUTH HILL*    SUNNY     84  63  49 N3        30.04S
LAWRENCEVILLE* FAIR      86  63  45 NW6       29.97S
EMPORIA*       SUNNY     86  63  45 N5        29.97S
$$

VAZ088>098-311800-
SOUTHEAST VIRGINIA

CITY           SKY/WX    TMP DP  RH WIND       PRES   REMARKS
NORFOLK        SUNNY     86  64  47 N9        29.93S
VIRGINIA BEACH MOSUNNY   88  64  44 NE15      29.92S
NORFOLK NAVAL  MOSUNNY   85  66  53 N13       29.95S
WEST POINT*    SUNNY     88  57  35 N6        29.96S
SALUDA*        FAIR      84  65  52 N8        29.94S
NEWPORT NEWS   SUNNY     87  66  49 E9        29.94S
LANGLEY AFB    SUNNY     85  65  50 N13       29.94R
FORT EUSTIS    SUNNY     87  64  46 N8        29.93R
WILLIAMSBURG*  SUNNY     91  70  49 CALM      29.95S HX  97
HR EXEC AP*    FAIR      88  68  51 NE7       29.96R
FRANKLIN*      SUNNY     88  67  49 NE8       29.95S
WAKEFIELD      SUNNY     87  64  46 NE7       29.95S
$$

VAZ020-022-025-037-045-311800-
WEST CENTRAL AND SOUTHWEST VIRGINIA

CITY           SKY/WX    TMP DP  RH WIND       PRES   REMARKS
STAUNTON*      SUNNY     85  54  34 NE5       30.03F
WAYNESBORO*    FAIR      80  56  44 W8        30.03F
HOT SPRINGS VA MOSUNNY   72  57  59 N7        30.14F
LYNCHBURG      SUNNY     83  58  42 VRB5      30.03F
DANVILLE       SUNNY     86  61  42 NE7       30.01S
SOUTH BOSTON*  FAIR      84  59  42 NE5       29.99S
MARTINSVILLE   SUNNY     85  54  33 NW5       30.05S
ROANOKE        MOSUNNY   84  54  35 N8        30.05F
BLACKSBURG     SUNNY     79  57  46 N5        30.12F
DUBLIN*          N/A     79  57  46 N3        30.11F
MARION*        MOSUNNY   77  58  52 W3        30.15F
HILLSVILLE*    SUNNY     74  56  52 N6        30.12S
RICHLANDS*     FAIR      75  56  52 N3        30.14F
WISE*          SUNNY     79  50  36 N10       30.16F
ABINGDON*      MOSUNNY   79  52  39 CALM      30.11F
$$

MDZ021>025-VAZ099-100-311800-
SOUTHERN MARYLAND AND THE DELMARVA PENINSULA

CITY           SKY/WX    TMP DP  RH WIND       PRES   REMARKS
PATUXENT RIVER MOSUNNY   86  61  42 NW7       29.93S
BAY BRIDGE APT   N/A     84  57  39 N3        29.92S
LEONARDTOWN    SUNNY     86  55  35 CALM      29.95S
DOVER          SUNNY     85  63  46 N8        29.89F
GEORGETOWN     SUNNY     87  57  35 NE8       29.92F
EASTON         MOSUNNY   86  63  45 NW5       29.96F
CAMBRIDGE      SUNNY     86  55  35 NW8       29.92S
SALISBURY      SUNNY     86  59  39 NW12G18   29.91F
OCEAN CITY     SUNNY     88  57  34 N10G17    29.91S
WALLOPS ISLAND SUNNY     87  61  41 NW5       29.92S
ACCOMACK*      SUNNY     86  61  42 N8        29.93R
$$

NCZ012>017-030>032-311800-
NORTH CENTRAL AND EASTERN NORTH CAROLINA

CITY           SKY/WX    TMP DP  RH WIND       PRES   REMARKS
ROANOKE RAPIDS FAIR      88  63  42 NE8G17    29.95S
RALEIGH        MOSUNNY   87  63  44 N5        29.98F
ELIZABETH CITY SUNNY     87  68  52 NE17      29.92S
AHOSKIE*       SUNNY     85  69  58 NE7       29.94S
EDENTON*         N/A     85  73  66 N10       29.93S
CURRITUCK*     SUNNY     87  67  51 N15       29.93S
KILL DEVIL HLS MOSUNNY   86  73  66 N12       29.91R
MANTEO         PTSUNNY   84  74  72 N13       29.91S
CAPE HATTERAS  MOSUNNY   88  76  67 N8        29.90R HX  99
TARBORO*         N/A     90  69  49 NW5       29.95S
GOLDSBORO      SUNNY     89  69  51 VRB6      29.92F
WASHINGTON     SUNNY     86  74  66 NE8       29.93S
GREENVILLE     SUNNY     88  72  58 N3        29.95S
NEW BERN       MOSUNNY   88  74  63 N9        29.93S HX  96
WILMINGTON     PTSUNNY   88  77  69 W7        29.92F HX 100
$$

VAZ048-311800-
ELSEWHERE

CITY           SKY/WX    TMP DP  RH WIND       PRES   REMARKS
HARRISBURG PA  MOSUNNY   87  56  34 W10       29.90F
BALTIMORE      MOSUNNY   88  53  30 NW9       29.91F
ANNAPOLIS      SUNNY     86  58  38 N3        29.91F
ANDREWS AFB    MOSUNNY   87  57  36 VRB5      29.92F
PHILADELPHIA   MOSUNNY   88  54  31 N8        29.89F
HENDERSON NC   SUNNY     85  58  39 N3        29.99S
GREENSBORO     MOSUNNY   84  57  39 VRB5      30.02S
ROCKY MOUNT    SUNNY     92  66  42 N12       29.95S
$$

VAZ100-311800-
MARINE

STATION/POSITION TIME  TEMP    WIND        PRES    WAVE   SWELL
                       AIR SEA DIR/SP/G            HT/PER HT/PER
                 (UTC) (F)     (DEG/KT/KT) (MB)    (FT/S) (FT/S)
BRANDYWINE LGT   1600   79 75  340/  8/  9 1013.3F
CAPE MAY NJ      1600   83 78  310/  4/  8 1012.7F
LEWES DE         1600   79 74  330/  3/  4 1013.0F
15NM E FENWICK I 1650   79 80  320/  8/  8 1013.0F   3/ 7   3/ 7
OCEAN-CITY-INLET 1600   81 71   20/  7/ 10 1012.2F
WACHAPREAGUE VA  1600   85 84   10/  5/ 10 1013.4F
THOMAS POINT MD  1700   83 81   CALM  /  1 1013.5
GOOSES REEF MD   1700   83 83   40/  2/  4 1014.4F
COVE POINT MD    1600   82     350/  7/  9 1014.3F
SOLOMONS ISLAND  1600      83                N/A
BISHOPS HEAD MD  1600   84 83   40/  8/ 10 1012.6F
PINEY POINT MD   1600          310/  8/ 10   N/A
POTOMAC MD       1700   82 83  280/  6/  8 1012.4F   0
CAMBRIDGE MD     1600   83 83  350/  5/  7 1012.6F
LEWISETTA VA     1600   82 83   40/  2/  5 1013.5F
RAPPAHANNOCK LGT 1600           10/ 12/ 14 1014.1F
STINGRAY PT      1700   82 83   20/ 10/ 12 1014.0R   1/ 3
YORK RVR RNG VA  1600   83      30/ 14/ 17 1013.0F
YORKTOWN VA      1600   83 84   40/  9/ 12 1013.4F
JAMESTOWN VA     1700   84 87  320/  6/ 12   N/A
DOMINION TERM VA 1600   85      60/ 10/ 16 1013.4S
KIPTOPEKE VA     1600      82  360/  8/ 11   N/A
CHES BAY BRIDGE  1600   81 80  360/ 12/ 12 1013.1R
CAPE HENRY VA    1600   80      30/ 12/ 13   N/A
CHESAPEAKE LGHT  1600   81      30/ 17/ 18 1013.7R
WILLOUBY STN VA  1600   81      30/ 14/ 15 1014.6R
CAPE HENRY BUOY  1628      81                N/A     3/ 6
1ST LANDING BUOY 1700      80              1013.4R   2/ 3
CAPE CHARLES BUO 1626      81                N/A     3/10   2/10
OFFSHORE WE BUOY 1611      82                N/A     4/ 7   3/ 7
64NM E OF VA BCH 1650   80 81   20/ 14/ 17 1012.0R   3/ 6   3/ 6
DUCK PIER NC     1600   74 65  350/ 10/ 12 1012.1R
44100 DUCK FRF   1624      80                N/A     3/ 4
44056 DUCK FRF   1611      77                N/A     3/ 4
OREGON INLET NC  1600   82 83   10/ 13/ 16 1012.4R
HATTERAS NC      1600   83 82   10/  9/ 10 1012.0R
DIAMOND SHLS NC  1650   82 86  360/  8/ 12 1012.4R   4/10   3/10



USA.gov is the U.S. government's official web portal to all federal, state and local government web resources and services.